| time (UTC) | temp F | wind direction | speed MPH | gust MPH | rain 1hr in | rain 24hr in | rain mn in | humidity % | barometer mb |
| 20260507131511 | 80 | 80 | 9.0 | 0.0 | 0.00 | 0.00 | 0.00 | 94 | 1012.0 |
| 20260507130010 | 81 | 80 | 6.0 | 0.0 | 0.00 | 0.00 | 0.00 | 94 | 1012.0 |
| 20260507124509 | 82 | 80 | 6.0 | 0.0 | 0.00 | 0.00 | 0.00 | 94 | 1013.0 |
| 20260507123009 | 73 | 80 | 6.0 | 0.0 | 0.00 | 0.00 | 0.00 | 85 | 1013.0 |
| 20260507121508 | 74 | 80 | 6.0 | 0.0 | 0.00 | 0.00 | 0.00 | 85 | 1012.0 |
| 20260507120008 | 75 | 88 | 5.0 | 14.0 | 0.00 | 0.00 | 0.00 | 85 | 1012.0 |
| 20260507114506 | 76 | 88 | 6.0 | 14.0 | 0.00 | 0.00 | 0.00 | 85 | 1012.0 |
| 20260507113005 | 72 | 91 | 5.0 | 10.0 | 0.00 | 0.00 | 0.00 | 88 | 1012.0 |
| 20260507111506 | 73 | 91 | 6.0 | 10.0 | 0.00 | 0.00 | 0.00 | 88 | 1012.0 |
| 20260507110004 | 72 | 91 | 5.0 | 10.0 | 0.00 | 0.00 | 0.00 | 88 | 1012.0 |
| 20260507104501 | 73 | 91 | 6.0 | 10.0 | 0.00 | 0.00 | 0.00 | 88 | 1012.0 |
| 20260507103000 | 72 | 93 | 6.0 | 10.0 | 0.00 | 0.00 | 0.00 | 88 | 1011.0 |
| 20260507101459 | 72 | 93 | 6.0 | 10.0 | 0.00 | 0.00 | 0.00 | 88 | 1011.0 |
| 20260507095959 | 72 | 93 | 6.0 | 10.0 | 0.00 | 0.00 | 0.00 | 88 | 1011.0 |
| 20260507094458 | 72 | 93 | 6.0 | 10.0 | 0.00 | 0.00 | 0.00 | 88 | 1011.0 |
| 20260507092957 | 73 | 98 | 5.0 | 10.0 | 0.00 | 0.00 | 0.00 | 87 | 1011.0 |
| 20260507091457 | 74 | 98 | 6.0 | 10.0 | 0.00 | 0.00 | 0.00 | 87 | 1011.0 |
| 20260507084245 | 73 | 96 | 7.0 | 11.0 | 0.00 | 0.00 | 0.00 | 87 | 1011.0 |
| 20260507082744 | 74 | 96 | 7.0 | 11.0 | 0.00 | 0.00 | 0.00 | 87 | 1011.0 |
| 20260507081244 | 73 | 96 | 7.0 | 11.0 | 0.00 | 0.00 | 0.00 | 87 | 1011.0 |
| 20260507075743 | 74 | 96 | 7.0 | 11.0 | 0.00 | 0.00 | 0.00 | 87 | 1011.0 |
| 20260507074242 | 73 | 93 | 7.0 | 11.0 | 0.00 | 0.00 | 0.00 | 86 | 1011.0 |
| 20260507072742 | 74 | 93 | 7.0 | 11.0 | 0.00 | 0.00 | 0.00 | 86 | 1012.0 |
| 20260507071242 | 73 | 93 | 7.0 | 11.0 | 0.00 | 0.00 | 0.00 | 86 | 1012.0 |
| 20260507064031 | 74 | 93 | 7.0 | 11.0 | 0.00 | 0.00 | 0.00 | 86 | 1012.0 |
| 20260507062530 | 73 | 77 | 7.0 | 11.0 | 0.00 | 0.00 | 0.00 | 85 | 1013.0 |
| 20260507061030 | 74 | 77 | 7.0 | 11.0 | 0.00 | 0.00 | 0.00 | 85 | 1013.0 |
| 20260507055529 | 75 | 77 | 7.0 | 12.0 | 0.00 | 0.00 | 0.00 | 85 | 1013.0 |
| 20260507054028 | 73 | 81 | 5.0 | 11.0 | 0.00 | 0.00 | 0.00 | 83 | 1013.0 |
| 20260507052528 | 74 | 81 | 5.0 | 11.0 | 0.00 | 0.00 | 0.00 | 83 | 1013.0 |
| 20260507051028 | 75 | 81 | 5.0 | 11.0 | 0.00 | 0.00 | 0.00 | 83 | 1013.0 |
| 20260507045527 | 76 | 81 | 5.0 | 11.0 | 0.00 | 0.00 | 0.00 | 83 | 1013.0 |
| 20260507044027 | 77 | 81 | 6.0 | 11.0 | 0.00 | 0.00 | 0.00 | 83 | 1013.0 |
| 20260507042527 | 74 | 80 | 5.0 | 9.0 | 0.00 | 0.00 | 0.00 | 81 | 1013.0 |
| 20260507041025 | 74 | 80 | 5.0 | 9.0 | 0.00 | 0.00 | 0.00 | 81 | 1013.0 |
| 20260507035525 | 74 | 80 | 5.0 | 9.0 | 0.00 | 0.00 | 0.00 | 81 | 1013.0 |
| 20260507034025 | 73 | 65 | 4.0 | 7.0 | 0.00 | 0.00 | 0.00 | 78 | 1013.0 |
| 20260507032524 | 74 | 65 | 4.0 | 7.0 | 0.00 | 0.00 | 0.00 | 78 | 1013.0 |
| 20260507031024 | 75 | 65 | 4.0 | 7.0 | 0.00 | 0.00 | 0.00 | 78 | 1013.0 |
| 20260507023814 | 76 | 65 | 4.0 | 7.0 | 0.00 | 0.00 | 0.00 | 78 | 1013.0 |
| 20260507022314 | 74 | 65 | 5.0 | 9.0 | 0.00 | 0.00 | 0.00 | 74 | 1013.0 |
| 20260507015104 | 74 | 90 | 8.0 | 0.0 | 0.00 | 0.00 | 0.00 | 74 | 1013.0 |
| 20260507013603 | 75 | 90 | 8.0 | 0.0 | 0.00 | 0.00 | 0.00 | 74 | 1013.0 |
| 20260507004641 | 76 | 90 | 8.0 | 0.0 | 0.00 | 0.00 | 0.00 | 74 | 1012.0 |
| 20260507003140 | 77 | 90 | 8.0 | 0.0 | 0.00 | 0.00 | 0.00 | 74 | 1012.0 |
| 20260507001640 | 78 | 90 | 8.0 | 0.0 | 0.00 | 0.00 | 0.00 | 74 | 1011.0 |
| 20260507000139 | 79 | 90 | 8.0 | 0.0 | 0.00 | 0.00 | 0.00 | 74 | 1011.0 |
| 20260506234639 | 80 | 90 | 8.0 | 0.0 | 0.00 | 0.00 | 0.00 | 74 | 1011.0 |
| 20260506233138 | 81 | 90 | 8.0 | 0.0 | 0.00 | 0.00 | 0.00 | 74 | 1011.0 |
| 20260506231638 | 82 | 90 | 8.0 | 0.0 | 0.00 | 0.00 | 0.00 | 74 | 1011.0 |
| 20260506230137 | 83 | 90 | 9.0 | 0.0 | 0.00 | 0.00 | 0.00 | 74 | 1011.0 |
| 20260506224636 | 84 | 90 | 9.0 | 0.0 | 0.00 | 0.00 | 0.00 | 74 | 1011.0 |
| 20260506223136 | 85 | 90 | 9.0 | 0.0 | 0.00 | 0.00 | 0.00 | 74 | 1011.0 |
| 20260506221635 | 80 | 90 | 11.0 | 0.0 | 0.00 | 0.00 | 0.00 | 70 | 1010.0 |
| 20260506220135 | 81 | 90 | 11.0 | 0.0 | 0.00 | 0.00 | 0.00 | 70 | 1010.0 |
| 20260506214635 | 82 | 90 | 11.0 | 0.0 | 0.00 | 0.00 | 0.00 | 70 | 1010.0 |
| 20260506211424 | 83 | 90 | 11.0 | 0.0 | 0.00 | 0.00 | 0.00 | 70 | 1010.0 |
| 20260506205923 | 84 | 90 | 11.0 | 0.0 | 0.00 | 0.00 | 0.00 | 70 | 1010.0 |
| 20260506204423 | 85 | 90 | 11.0 | 0.0 | 0.00 | 0.00 | 0.00 | 70 | 1010.0 |
| 20260506202922 | 86 | 90 | 11.0 | 0.0 | 0.00 | 0.00 | 0.00 | 70 | 1010.0 |
| 20260506201422 | 87 | 90 | 11.0 | 0.0 | 0.00 | 0.00 | 0.00 | 70 | 1011.0 |
| 20260506195922 | 88 | 90 | 11.0 | 0.0 | 0.00 | 0.00 | 0.00 | 70 | 1011.0 |
| 20260506192710 | 89 | 90 | 11.0 | 0.0 | 0.00 | 0.00 | 0.00 | 70 | 1011.0 |
| 20260506191210 | 82 | 100 | 13.0 | 0.0 | 0.00 | 0.00 | 0.00 | 79 | 1011.0 |
| 20260506185710 | 83 | 100 | 13.0 | 0.0 | 0.00 | 0.00 | 0.00 | 79 | 1011.0 |
| 20260506184209 | 84 | 100 | 13.0 | 0.0 | 0.00 | 0.00 | 0.00 | 79 | 1012.0 |
| 20260506180959 | 85 | 90 | 11.0 | 0.0 | 0.00 | 0.00 | 0.00 | 79 | 1012.0 |
| 20260506175458 | 81 | 90 | 11.0 | 0.0 | 0.00 | 0.00 | 0.00 | 93 | 1012.0 |
| 20260506173958 | 82 | 90 | 11.0 | 0.0 | 0.00 | 0.00 | 0.00 | 93 | 1012.0 |
| 20260506172456 | 83 | 90 | 11.0 | 0.0 | 0.00 | 0.00 | 0.00 | 93 | 1012.0 |
| 20260506170956 | 84 | 90 | 8.0 | 0.0 | 0.00 | 0.00 | 0.00 | 93 | 1013.0 |
| 20260506165455 | 85 | 90 | 9.0 | 0.0 | 0.00 | 0.00 | 0.00 | 93 | 1013.0 |
| 20260506163955 | 86 | 90 | 9.0 | 0.0 | 0.00 | 0.00 | 0.00 | 93 | 1013.0 |
| 20260506162455 | 87 | 90 | 9.0 | 0.0 | 0.00 | 0.00 | 0.00 | 93 | 1012.0 |
| 20260506160954 | 88 | 78 | 9.0 | 13.0 | 0.00 | 0.00 | 0.00 | 93 | 1013.0 |
| 20260506155453 | 81 | 90 | 6.0 | 0.0 | 0.00 | 0.00 | 0.00 | 94 | 1013.0 |
| 20260506153953 | 82 | 90 | 6.0 | 0.0 | 0.00 | 0.00 | 0.00 | 94 | 1013.0 |
| 20260506152453 | 79 | 90 | 8.0 | 0.0 | 0.00 | 0.00 | 0.00 | 89 | 1012.0 |
| 20260506150951 | 80 | 90 | 9.0 | 0.0 | 0.00 | 0.00 | 0.00 | 89 | 1013.0 |
| 20260506145450 | 81 | 90 | 9.0 | 0.0 | 0.00 | 0.00 | 0.00 | 89 | 1013.0 |
| 20260506143950 | 82 | 90 | 9.0 | 0.0 | 0.00 | 0.00 | 0.00 | 89 | 1013.0 |
| 20260506142449 | 77 | 0 | 0.0 | 0.0 | 0.00 | 0.00 | 0.00 | 94 | 1012.0 |
| 20260506135238 | 78 | 0 | 0.0 | 0.0 | 0.00 | 0.00 | 0.00 | 94 | 1012.0 |
| 20260506133738 | 77 | 0 | 0.0 | 0.0 | 0.00 | 0.00 | 0.00 | 94 | 1012.0 |